This is the latest recevied weather packets stored in our database for station/object WA0LM. If no packets are shown the sender has not sent any weather packets the latest 10 day(s).
| Time | Temp. | Humidity | Pressure | Rain* | Wind** | Luminosity | Snow |
|---|---|---|---|---|---|---|---|
| 1777317285 | 6.11° C | 99% | 999.4 hPa | 3.05 mm | - | 47 W/m² | - |
| 1777316979 | 6.11° C | 99% | 999.4 hPa | 3.56 mm | - | 51 W/m² | - |
| 1777316678 | 6.11° C | 99% | 999.5 hPa | 4.32 mm | - | 56 W/m² | - |
| 1777316373 | 6.11° C | 99% | 999.5 hPa | 4.32 mm | - | 49 W/m² | - |
| 1777316071 | 5.56° C | 99% | 999.6 hPa | 4.32 mm | - | 40 W/m² | - |
| 1777315770 | 6.11° C | 99% | 999.5 hPa | 4.32 mm | - | 43 W/m² | - |
| 1777315467 | 5.56° C | 99% | 999.5 hPa | 4.83 mm | - | 43 W/m² | - |
| 1777315165 | 5.56° C | 99% | 999.6 hPa | 4.32 mm | - | 52 W/m² | - |
| 1777314861 | 5.56° C | 99% | 999.4 hPa | 3.05 mm | - | 53 W/m² | - |
| 1777314557 | 5.56° C | 99% | 999.6 hPa | 3.05 mm | - | 50 W/m² | - |
| 1777314254 | 5.56° C | 99% | 999.5 hPa | 2.29 mm | - | 42 W/m² | - |
| 1777313951 | 5.56° C | 99% | 999.7 hPa | 1.78 mm | - | 50 W/m² | - |
| 1777313649 | 5.56° C | 99% | 999.5 hPa | 1.27 mm | - | 81 W/m² | - |
| 1777313347 | 5.56° C | 99% | 999.5 hPa | 1.27 mm | - | 59 W/m² | - |
| 1777313043 | 5.56° C | 99% | 999.7 hPa | 1.27 mm | - | 58 W/m² | - |
| 1777312739 | 5.56° C | 99% | 999.7 hPa | 1.27 mm | - | 66 W/m² | - |
| 1777312435 | 5.56° C | 99% | 999.8 hPa | 1.27 mm | - | 82 W/m² | - |
| 1777312133 | 5.56° C | 99% | 999.6 hPa | 1.78 mm | - | 87 W/m² | - |
| 1777311830 | 5.56° C | 99% | 999.8 hPa | 1.78 mm | - | 76 W/m² | - |
| 1777311527 | 5.56° C | 99% | 1000 hPa | 0.51 mm | - | 61 W/m² | - |
| 1777311225 | 5.56° C | 99% | 999.9 hPa | 0.51 mm | - | 53 W/m² | - |
| 1777310923 | 5.56° C | 99% | 1000 hPa | 0.51 mm | - | 54 W/m² | - |
| 1777310620 | 5.56° C | 99% | 1000 hPa | 0.51 mm | - | 59 W/m² | - |
| 1777310317 | 5.56° C | 99% | 1000.1 hPa | 0.51 mm | - | 58 W/m² | - |
| 1777310014 | 5.56° C | 99% | 999.9 hPa | 0 mm | - | 62 W/m² | - |
* Rain latest hour (hover to see other rain measurements)
** Current wind speed in m/s (hover to see current wind gust speed)